Lid_Strength_Index
-2 -1 -1 -1 -1 -1 -1 -1 -1 -1 -2 -1 -1 -1 -2 -2 -1 -1 -1 -1 -2 -2 -2 -2 -2 -2 -2 -2 -2 -2 -2 -2 -2
-1 -1 -1 -1 -1 -1 -1 -1 -1 -1 -1 -1 -1 -1 -1 -1 -1 -1 -1 -2 -2 -2 -2 -2 -2 -2 -2 -2 -2 -2 -2 -2 -2
-1 -2 -1 -1 -1 -1 -1 -1 -1 -1 -1 -1 -1 -1 -1 -1 -1 -1 -2 -2 -2 -2 -2 -2 -2 -2 -2 -2 -2 -2 -2 -2 -2
-1 -1 -1 -1 -1 -1 -1 -1 -1 -1 -1 -1 -1 -1 -1 -1 -1 -1 -1 -1 -2 -2 -2 -2 -2 -2 -2 -2 -2 -2 -2 -2 -2
-1 -1 -1 -1 -1 -1 -1 -1 -1 -1 -1 -1 -1 -1 -1 -1 -1 -1 -1 -2 -2 -2 -2 -2 -2 -2 -2 -2 -2 -2 -2 -2 -2
-1 -0 -1 -1 -1 -1 -1 -1 -0 1 1 0 -1 -1 -1 -1 -1 -1 -1 -2 -2 -2 -2 -2 -2 -2 -2 -2 -2 -2 -2 -2 -2
-0 1 -0 -1 -1 -1 -0 1 1 0 0 0 -0 -1 -1 -1 -1 -2 -1 -2 -2 -2 -2 -2 -2 -2 -2 -2 -2 -2 -2 -2 -2
4 4 4 2 2 2 3 3 3 1 1 1 1 0 -0 -0 -1 -1 -1 -2 -2 -2 -2 -2 -2 -2 -2 -2 -2 -2 -2 -2 -2
4 8 8 6 4 3 5 6 5 5 4 3 4 4 2 3 1 0 -1 -2 -2 -2 -2 -2 -2 -2 -2 -2 -2 -2 -2 -1 -1
6 6 10 10 7 6 7 7 8 8 9 8 7 8 7 6 5 4 0 -1 -1 -1 -2 -2 -2 -1 -1 -1 -2 -2 -2 -2 -1
8 8 7 9 10 8 9 10 10 11 10 10 10 10 10 10 8 7 3 1 -1 -1 -1 -1 -0 0 0 1 0 0 0 0 0
10 11 11 11 9 13 12 12 11 12 12 13 13 11 11 10 10 10 6 5 3 2 1 1 1 1 1 1 2 2 2 2 1
10 11 11 11 12 12 12 13 13 13 14 13 13 12 12 11 11 11 11 8 6 5 4 3 2 2 2 2 2 3 3 3 3
11 11 11 11 12 13 13 13 13 14 14 14 14 13 13 12 12 12 12 10 7 7 6 5 4 4 3 3 3 3 4 4 4
12 12 12 11 11 12 13 13 13 13 13 14 13 12 11 11 11 12 11 10 9 9 8 6 5 3 2 2 2 2 2 3 3
13 12 12 12 11 11 11 12 14 13 12 13 12 12 11 11 11 11 11 11 10 10 10 10 7 6 5 4 3 3 3 3 3
12 12 11 11 11 11 11 11 12 12 11 11 11 14 13 12 12 11 11 11 11 11 11 11 10 9 8 7 6 5 4 4 4
13 12 11 10 10 11 11 11 11 12 11 10 10 13 13 13 12 12 12 12 11 11 11 11 11 10 9 8 7 7 6 5 5
13 12 11 10 10 10 9 9 9 10 12 11 11 10 11 13 15 13 13 12 13 12 12 12 11 10 9 9 9 8 8 7 6
13 11 11 10 10 9 9 10 10 10 11 11 12 12 11 11 12 15 14 13 13 12 12 12 11 10 10 10 10 10 9 9 8